Regional Weather Roundup
Issued by NWS

Home | Current Version | Previous Version | Graphics & Text | Print | Product List | Glossary Off
Versions: 1 2 3 4 5 6 7 8 9 10 11 12 13 14 15 16 17 18 19 20 21 22 23 24 25 26 27 28 29 30 31 32 33 34 35 36 37 38 39 40 41 42 43 44 45 46 47 48 49 50

000
ASUS43 KTOP 031859
RWRKS

WEATHER ROUNDUP FOR KANSAS
NATIONAL WEATHER SERVICE GOODLAND KS
200 PM CDT THU SEP 03 2015

NOTE:  "FAIR" INDICATES FEW OR NO CLOUDS BELOW 12,000 FEET WITH NO
SIGNIFICANT WEATHER AND/OR OBSTRUCTIONS TO VISIBILITY.

KSZ001>006-013>018-027>032-041>047-032000-
NORTHWEST KANSAS

CITY           SKY/WX    TMP DP  RH WIND       PRES   REMARKS
GOODLAND       PTSUNNY   95  46  18 S10       29.86F
HAYS           SUNNY     99  57  25 S26G37    29.80F HX  97
HILL CITY      MOSUNNY  100  58  24 S14G22    29.79F HX  99
RUSSELL        SUNNY     96  60  30 S25G31    29.81F HX  96
$$

KSZ061>065-074>080-084>089-032000-
SOUTHWEST KANSAS

CITY           SKY/WX    TMP DP  RH WIND       PRES   REMARKS
DODGE CITY     MOSUNNY   94  55  26 S22G32    29.87F
ELKHART          N/A     93  55  27 S6          N/A
GARDEN CITY    MOSUNNY   92  57  30 S18       29.85F
GREAT BEND     SUNNY     97  63  32 S22G31    29.84S HX  98
LIBERAL        PTSUNNY   93  55  27 S14G20    29.88F
$$

KSZ066>073-081>083-090>101-032000-
SOUTHEAST KANSAS

CITY           SKY/WX    TMP DP  RH WIND       PRES   REMARKS
CHANUTE        SUNNY     88  69  53 S15       29.96F
COFFEYVILLE    SUNNY     87  72  60 S12       29.96F
HUTCHINSON     SUNNY     94  62  34 S26G33    29.87F
NEWTON         SUNNY     93  63  36 S18G29    29.93F
PARSONS        SUNNY     87  72  60 S10G18    29.97F
WICHITA INTL   MOSUNNY   93  62  35 S25G32    29.88F
WICHITA JABRA  SUNNY     90  65  43 S21G31    29.90F
WINFIELD       SUNNY     93  66  40 S14       29.93F HX  96
$$

KSZ007>012-019>026-033>040-048>060-102>105-032000-
NORTHEAST KANSAS

CITY           SKY/WX    TMP DP  RH WIND       PRES   REMARKS
CONCORDIA      SUNNY     93  63  36 S20G30    29.83F
EMPORIA        SUNNY     91  67  44 S20G26    29.91F
LAWRENCE       SUNNY     91  68  46 S15       29.91F HX  95
MANHATTAN      SUNNY     96  64  34 S17G28    29.85F HX  98
OLATHE IND     SUNNY     89  70  53 S14G22    29.94F
OLATHE EXE     SUNNY     87  68  52 S13       29.93F
SALINA         SUNNY     96  64  34 S20G30    29.84F HX  98
TOPEKA BILLARD SUNNY     91  66  43 S14       29.89F
TOPEKA FORBES  SUNNY     91  68  46 S18G26    29.90F HX  95
$$



USA.gov is the U.S. government's official web portal to all federal, state and local government web resources and services.